TimeCDT,TemperatureF,Dew PointF,Humidity,Sea Level PressureIn,VisibilityMPH,Wind Direction,Wind SpeedMPH,Gust SpeedMPH,PrecipitationIn,Events,Conditions,WindDirDegrees,DateUTC
1:53 AM,73.9,70.0,87,29.93,10.0,Calm,Calm,-,N/A,,Clear,0,2013-06-17 06:53:00
2:53 AM,73.0,69.1,87,29.92,9.0,Calm,Calm,-,N/A,,Clear,0,2013-06-17 07:53:00
3:53 AM,72.0,70.0,93,29.92,5.0,Calm,Calm,-,N/A,,Clear,0,2013-06-17 08:53:00
4:53 AM,72.0,70.0,93,29.91,6.0,ESE,3.5,-,N/A,,Mostly Cloudy,110,2013-06-17 09:53:00
5:53 AM,71.1,69.1,93,29.93,5.0,Calm,Calm,-,N/A,,Clear,0,2013-06-17 10:53:00
6:53 AM,73.0,71.1,93,29.94,4.0,SSE,3.5,-,N/A,,Clear,160,2013-06-17 11:53:00
7:53 AM,79.0,72.0,79,29.92,6.0,Calm,Calm,-,N/A,,Haze,0,2013-06-17 12:53:00
8:53 AM,81.0,72.0,74,29.91,8.0,Calm,Calm,-,N/A,,Clear,0,2013-06-17 13:53:00
9:53 AM,84.0,71.1,65,29.91,9.0,Variable,3.5,-,N/A,,Clear,0,2013-06-17 14:53:00
10:53 AM,84.9,72.0,65,29.91,9.0,South,8.1,-,N/A,,Partly Cloudy,190,2013-06-17 15:53:00
11:53 AM,75.9,64.9,69,29.94,6.0,NE,11.5,-,0.00,Rain,Light Rain,40,2013-06-17 16:53:00
12:20 PM,69.8,66.2,88,29.97,1.5,NNE,12.7,24.2,0.12,Rain,Heavy Rain,20,2013-06-17 17:20:00
12:31 PM,69.8,66.2,88,29.94,1.0,ENE,17.3,-,0.29,Rain,Heavy Rain,70,2013-06-17 17:31:00
12:53 PM,69.1,66.9,93,29.94,0.8,ENE,10.4,-,0.80,Rain,Heavy Rain,60,2013-06-17 17:53:00
1:04 PM,69.8,68.0,94,29.94,1.0,NE,9.2,-,0.17,Rain,Heavy Rain,50,2013-06-17 18:04:00
1:18 PM,69.8,68.0,94,29.94,2.0,ENE,9.2,-,0.26,Rain,Light Rain,60,2013-06-17 18:18:00
1:20 PM,69.8,68.0,94,29.94,3.0,NE,9.2,-,0.26,Rain,Light Rain,50,2013-06-17 18:20:00
1:53 PM,72.0,68.0,87,29.91,9.0,SE,5.8,-,0.29,,Overcast,140,2013-06-17 18:53:00
2:53 PM,72.0,69.1,91,29.91,8.0,NNE,5.8,-,0.00,,Overcast,20,2013-06-17 19:53:00
3:19 PM,73.4,69.8,88,29.94,1.8,North,3.5,-,0.03,Rain,Light Rain,360,2013-06-17 20:19:00
3:38 PM,71.6,69.8,94,29.93,2.5,NE,6.9,-,0.09,Rain,Rain,40,2013-06-17 20:38:00
3:45 PM,71.6,69.8,94,29.93,3.0,ENE,6.9,-,0.09,Rain,Rain,60,2013-06-17 20:45:00
3:53 PM,72.0,70.0,93,29.92,3.0,ENE,8.1,-,0.10,Rain,Light Rain,60,2013-06-17 20:53:00
3:56 PM,71.6,69.8,94,29.93,3.0,NE,8.1,-,0.00,Rain,Rain,50,2013-06-17 20:56:00
4:07 PM,71.6,69.8,94,29.93,4.0,NE,9.2,-,0.01,Rain,Light Rain,40,2013-06-17 21:07:00
4:15 PM,71.6,69.8,94,29.93,1.8,ENE,9.2,-,0.09,Rain,Heavy Rain,70,2013-06-17 21:15:00
4:21 PM,71.6,69.8,94,29.92,1.0,East,8.1,-,0.17,Rain,Heavy Rain,90,2013-06-17 21:21:00
4:29 PM,71.6,69.8,94,29.92,1.5,East,5.8,-,0.20,Rain,Heavy Rain,100,2013-06-17 21:29:00
4:40 PM,71.6,69.8,94,29.92,2.5,East,4.6,-,0.21,Rain,Light Rain,90,2013-06-17 21:40:00
4:49 PM,71.6,71.6,100,29.92,5.0,ENE,4.6,-,0.21,Rain,Light Rain,70,2013-06-17 21:49:00
4:53 PM,72.0,71.1,97,29.91,5.0,ENE,5.8,-,0.21,,Overcast,60,2013-06-17 21:53:00
5:53 PM,72.0,70.0,93,29.89,8.0,NE,5.8,-,0.00,Rain,Light Rain,40,2013-06-17 22:53:00
6:16 PM,71.6,69.8,94,29.90,8.0,NE,8.1,-,0.00,Rain,Light Rain,40,2013-06-17 23:16:00
6:35 PM,71.6,69.8,94,29.91,1.8,NE,5.8,-,0.07,Rain,Heavy Rain,40,2013-06-17 23:35:00
6:46 PM,71.6,69.8,94,29.92,2.5,Calm,Calm,-,0.09,Rain,Rain,0,2013-06-17 23:46:00
6:53 PM,71.1,69.1,93,29.92,2.5,North,3.5,-,0.10,Rain,Rain,350,2013-06-17 23:53:00
7:13 PM,69.8,66.2,88,29.94,2.5,NNE,17.3,26.5,0.04,Rain,Rain,20,2013-06-18 00:13:00
7:27 PM,69.8,66.2,88,29.94,3.0,NNE,15.0,-,0.06,Rain,Rain,20,2013-06-18 00:27:00
7:53 PM,69.1,66.9,93,29.94,3.0,NNE,11.5,-,0.12,Rain,Rain,20,2013-06-18 00:53:00
8:53 PM,66.9,63.0,87,29.92,10.0,North,4.6,-,0.05,Rain,Light Rain,360,2013-06-18 01:53:00
9:53 PM,66.9,63.0,87,29.91,10.0,Calm,Calm,-,0.00,,Clear,0,2013-06-18 02:53:00
10:53 PM,66.9,64.0,90,29.90,10.0,East,3.5,-,N/A,,Partly Cloudy,100,2013-06-18 03:53:00
11:53 PM,66.0,64.0,93,29.88,10.0,East,8.1,-,N/A,,Clear,100,2013-06-18 04:53:00